When you browse on this site, cookies collect data to enhance your experience and personalize the content and advertising you see.
Visit our Privacy Policy to learn more. By continuing to use the site, you agree to this use of cookies and data.
  • In Lithuania
  • List of Countries
  • For 7 days
  • Water Temperature
  • Satellite Maps
  • Weather Map
  • Weather Widgets
  • user-avatar
    Login

    Hourly Weather Garoua

    Today, 20 May, Monday

    Time Temperature Precipitation Wind Pressure Humidity
    00:00 +34°C° 0 mm 3 mps 740 mmHg 53%
    01:00 +33°C° 0 mm 3 mps 741 mmHg 58%
    02:00 +33°C° 0.3 mm 3 mps 741 mmHg 59%
    03:00 +31°C° 0.3 mm 2 mps 740 mmHg 61%
    04:00 +31°C° 0.3 mm 2 mps 740 mmHg 62%
    05:00 +31°C° 0.3 mm 2 mps 741 mmHg 62%
    06:00 +31°C° 0.3 mm 2 mps 741 mmHg 62%
    07:00 +33°C° 0 mm 3 mps 741 mmHg 61%
    08:00 +34°C° 0 mm 3 mps 741 mmHg 55%
    09:00 +36°C° 0 mm 3 mps 741 mmHg 49%
    10:00 +38°C° 0 mm 3 mps 741 mmHg 43%
    11:00 +39°C° 0 mm 3 mps 741 mmHg 38%
    12:00 +41°C° 0 mm 2 mps 740 mmHg 34%
    13:00 +41°C° 0 mm 4 mps 740 mmHg 36%
    14:00 +42°C° 0 mm 3 mps 740 mmHg 34%
    15:00 +42°C° 0 mm 3 mps 739 mmHg 32%
    16:00 +42°C° 0 mm 2 mps 739 mmHg 30%
    17:00 +40°C° 0 mm 2 mps 739 mmHg 32%
    18:00 +39°C° 0 mm 1 mps 739 mmHg 35%
    19:00 +37°C° 0 mm 1 mps 739 mmHg 38%
    20:00 +36°C° 0.2 mm 1 mps 740 mmHg 40%
    21:00 +35°C° 0.2 mm 1 mps 740 mmHg 43%
    22:00 +35°C° 0.2 mm 2 mps 740 mmHg 46%
    23:00 +35°C° 0 mm 2 mps 740 mmHg 48%

    Tomorrow, 21 May, Tuesday

    Time Temperature Precipitation Wind Pressure Humidity
    00:00 +34°C° 0 mm 2 mps 740 mmHg 50%
    01:00 +34°C° 0 mm 2 mps 740 mmHg 52%
    02:00 +32°C° 0 mm 2 mps 740 mmHg 54%
    03:00 +32°C° 0 mm 2 mps 740 mmHg 56%
    04:00 +32°C° 0 mm 2 mps 740 mmHg 58%
    05:00 +32°C° 0.4 mm 1 mps 740 mmHg 59%
    06:00 +32°C° 0.4 mm 1 mps 741 mmHg 60%
    07:00 +32°C° 0.4 mm 1 mps 741 mmHg 61%
    08:00 +34°C° 0.1 mm 1 mps 742 mmHg 55%
    09:00 +36°C° 0.1 mm 1 mps 742 mmHg 49%
    10:00 +36°C° 0.1 mm 0 mps 742 mmHg 43%
    11:00 +37°C° 0 mm 0 mps 742 mmHg 40%
    12:00 +40°C° 0 mm 1 mps 741 mmHg 37%
    13:00 +41°C° 0 mm 1 mps 741 mmHg 34%
    14:00 +41°C° 0 mm 1 mps 740 mmHg 32%
    15:00 +41°C° 0 mm 1 mps 739 mmHg 30%
    16:00 +41°C° 0 mm 2 mps 738 mmHg 28%
    17:00 +40°C° 0 mm 2 mps 738 mmHg 31%
    18:00 +37°C° 0 mm 1 mps 738 mmHg 34%
    19:00 +36°C° 0 mm 1 mps 738 mmHg 37%
    20:00 +35°C° 0 mm 1 mps 739 mmHg 39%
    21:00 +35°C° 0 mm 1 mps 740 mmHg 41%
    22:00 +34°C° 0 mm 1 mps 740 mmHg 42%
    23:00 +34°C° 0 mm 1 mps 741 mmHg 46%

    Day after tomorrow, 22 May, Wednesday

    Time Temperature Precipitation Wind Pressure Humidity
    00:00 +34°C° 0 mm 2 mps 741 mmHg 51%
    01:00 +34°C° 0 mm 2 mps 741 mmHg 55%
    02:00 +32°C° 1.9 mm 2 mps 741 mmHg 59%
    03:00 +31°C° 1.9 mm 2 mps 741 mmHg 63%
    04:00 +31°C° 1.9 mm 2 mps 741 mmHg 68%
    05:00 +31°C° 0 mm 2 mps 741 mmHg 67%
    06:00 +31°C° 0 mm 1 mps 742 mmHg 66%
    07:00 +31°C° 0 mm 1 mps 742 mmHg 65%
    08:00 +32°C° 0 mm 2 mps 742 mmHg 59%
    09:00 +34°C° 0 mm 2 mps 742 mmHg 54%
    10:00 +36°C° 0 mm 3 mps 743 mmHg 48%
    11:00 +37°C° 0 mm 2 mps 742 mmHg 43%
    12:00 +39°C° 0 mm 2 mps 741 mmHg 39%
    13:00 +40°C° 0 mm 2 mps 741 mmHg 34%
    14:00 +40°C° 0 mm 1 mps 740 mmHg 33%
    15:00 +41°C° 0 mm 1 mps 739 mmHg 31%
    16:00 +38°C° 0 mm 0 mps 739 mmHg 30%
    17:00 +40°C° 0 mm 1 mps 739 mmHg 33%
    18:00 +37°C° 0 mm 1 mps 739 mmHg 36%
    19:00 +36°C° 0 mm 1 mps 740 mmHg 38%
    20:00 +35°C° 0 mm 1 mps 740 mmHg 40%
    21:00 +35°C° 0 mm 1 mps 741 mmHg 42%
    22:00 +34°C° 0 mm 1 mps 741 mmHg 44%
    23:00 +34°C° 0 mm 1 mps 741 mmHg 45%

    23 May, Thursday

    Time Temperature Precipitation Wind Pressure Humidity
    00:00 +33°C° 0 mm 1 mps 741 mmHg 46%
    01:00 +33°C° 0 mm 1 mps 740 mmHg 48%
    02:00 +32°C° 0 mm 1 mps 740 mmHg 50%
    03:00 +32°C° 0 mm 1 mps 740 mmHg 52%
    04:00 +31°C° 0 mm 1 mps 740 mmHg 54%
    05:00 +32°C° 0.1 mm 1 mps 741 mmHg 55%
    06:00 +32°C° 0.1 mm 1 mps 741 mmHg 56%
    07:00 +32°C° 0.1 mm 1 mps 742 mmHg 56%
    08:00 +35°C° 0 mm 2 mps 742 mmHg 51%
    09:00 +37°C° 0 mm 2 mps 742 mmHg 45%
    10:00 +39°C° 0 mm 3 mps 742 mmHg 39%
    11:00 +41°C° 0 mm 2 mps 741 mmHg 34%
    12:00 +43°C° 0 mm 1 mps 741 mmHg 29%
    13:00 +42°C° 0 mm 0 mps 740 mmHg 24%
    14:00 +45°C° 0 mm 1 mps 739 mmHg 24%
    15:00 +44°C° 0 mm 1 mps 738 mmHg 23%
    16:00 +45°C° 0 mm 2 mps 738 mmHg 22%
    17:00 +42°C° 0 mm 2 mps 738 mmHg 25%
    18:00 +41°C° 0 mm 2 mps 738 mmHg 28%
    19:00 +39°C° 0 mm 2 mps 739 mmHg 31%
    20:00 +38°C° 0 mm 2 mps 739 mmHg 33%
    21:00 +38°C° 0 mm 2 mps 740 mmHg 35%
    22:00 +37°C° 0 mm 2 mps 741 mmHg 37%
    23:00 +36°C° 0 mm 2 mps 741 mmHg 41%

    24 May, Friday

    Time Temperature Precipitation Wind Pressure Humidity
    00:00 +36°C° 0 mm 2 mps 740 mmHg 44%
    01:00 +35°C° 0 mm 3 mps 740 mmHg 48%
    02:00 +34°C° 0.1 mm 2 mps 740 mmHg 51%
    03:00 +34°C° 0.1 mm 2 mps 740 mmHg 53%
    04:00 +32°C° 0.1 mm 2 mps 740 mmHg 56%
    05:00 +32°C° 0 mm 2 mps 741 mmHg 57%
    06:00 +32°C° 0 mm 2 mps 741 mmHg 57%
    07:00 +32°C° 0 mm 2 mps 741 mmHg 58%
    08:00 +35°C° 0 mm 2 mps 742 mmHg 52%
    09:00 +36°C° 0 mm 3 mps 742 mmHg 46%
    10:00 +38°C° 0 mm 3 mps 742 mmHg 39%
    11:00 +40°C° 0 mm 3 mps 741 mmHg 35%
    12:00 +42°C° 0 mm 3 mps 740 mmHg 31%
    13:00 +44°C° 0 mm 3 mps 739 mmHg 27%
    14:00 +43°C° 0 mm 2 mps 738 mmHg 26%
    15:00 +43°C° 0 mm 1 mps 738 mmHg 25%
    16:00 +40°C° 0 mm 0 mps 737 mmHg 24%
    17:00 +42°C° 0 mm 1 mps 738 mmHg 26%
    18:00 +40°C° 0 mm 1 mps 738 mmHg 29%
    19:00 +39°C° 0 mm 1 mps 739 mmHg 31%
    20:00 +37°C° 0 mm 1 mps 739 mmHg 33%
    21:00 +37°C° 0 mm 1 mps 739 mmHg 35%
    22:00 +37°C° 0 mm 2 mps 739 mmHg 37%
    23:00 +36°C° 0 mm 2 mps 739 mmHg 41%

    25 May, Saturday

    Time Temperature Precipitation Wind Pressure Humidity
    00:00 +36°C° 0 mm 2 mps 739 mmHg 44%
    01:00 +35°C° 0 mm 3 mps 739 mmHg 48%
    02:00 +34°C° 0.4 mm 2 mps 739 mmHg 52%
    03:00 +34°C° 0.4 mm 2 mps 739 mmHg 57%
    04:00 +32°C° 0.4 mm 2 mps 739 mmHg 61%
    05:00 +32°C° 0.3 mm 1 mps 740 mmHg 62%
    06:00 +32°C° 0.3 mm 1 mps 741 mmHg 62%
    07:00 +32°C° 0.3 mm 1 mps 741 mmHg 63%
    08:00 +34°C° 0 mm 1 mps 741 mmHg 55%
    09:00 +37°C° 0 mm 2 mps 741 mmHg 47%
    10:00 +39°C° 0 mm 3 mps 741 mmHg 40%
    11:00 +40°C° 0 mm 3 mps 740 mmHg 35%
    12:00 +43°C° 0 mm 3 mps 739 mmHg 31%
    13:00 +45°C° 0 mm 2 mps 739 mmHg 27%
    14:00 +45°C° 0 mm 2 mps 738 mmHg 25%
    15:00 +44°C° 0 mm 1 mps 738 mmHg 24%
    16:00 +44°C° 0 mm 1 mps 738 mmHg 23%
    17:00 +43°C° 0 mm 1 mps 738 mmHg 26%
    18:00 +41°C° 0 mm 1 mps 738 mmHg 29%
    19:00 +40°C° 0 mm 1 mps 739 mmHg 33%
    20:00 +38°C° 0.5 mm 2 mps 739 mmHg 39%
    21:00 +37°C° 0.5 mm 3 mps 740 mmHg 46%
    22:00 +36°C° 0.5 mm 4 mps 741 mmHg 53%
    23:00 +35°C° 1 mm 4 mps 741 mmHg 57%
    Show more